loading
DOY 175 | 2024-06-23T18:40:00Z
Showing default

OPS 3367 A, 734

Orbit data source: Space-Track

OPS 3367 A, 734 is an American payload satellite in SSO that was launched on Sun, 19 Jan 1964 UTC via a Thor SLV-2 Agena D launch vehicle from the Air Force Western Test Range (AFWTR). Payloads include a variety of satellites, spacecraft, and rockets equipped with specific instruments for various scientific and technological missions. These include communications satellites like Starlink; space stations such as the ISS; scientific satellites like the Hubble; Earth observation satellites from companies like Planet Labs, Umbra, and HawkEye 360; GPS; miniature CubeSats for education and research; and military/defense satellites.

Loading next visibility...
Loading greatness...
OPS 3367 A details
NORAD ID734
COSPAR ID
1964-002B
Orbit
SSO
Last TLE update1 day ago
Origin
Flag of USNRO/SAFSP (US)
ManufacturerRCA/East Windsor
BusP35
MotorUnknown
Mass50 kg wet, 50 kg dry
Launch date (UTC)
1964-01-19 (60 years ago)
Launch vehicle
Thor SLV-2 Agena D
Launch site
Air Force Western Test Range (AFWTR)
Object type
Payload
Rocket body
Debris
Radar Cross SectionMedium (>0.1 m² and <1 m²)
Predictive object data (real-time)
Latitude-73.14206°
Longitude66.51473°
Altitude828.337 km
Speed7.434 km/s
Apparent Right ascension16h 56m 32s
Apparent Declination-59° 07' 38"
Sunlit
Object is in full shadow
Predictive observer data (real-time)
Local Sidereal Time05:49:12
Azimuth160.908° S
Elevation-69.061°
Doppler factor1
Orbital elements
Apogee802.347 km
Perigee780.372 km
Semi-major axis7,169.496 km
Eccentricity0.0015325
Inclination98.9914°
RAAN72.1194°
Arg. of periapsis127.101°
True anomaly233.01702°
Mean anomaly233.1574°
Mean motion3.57528 °/min
BSTAR0.00007991
Period100.69 mins
Definitive object data (Epoch: 2024-06-22T16:16:25.831Z)
Latitude0.00001°
Longitude-83.3262°
Altitude803.72 km
Speed7.448 km/s
True Right ascension04h 48m 28s
True Declination0° 00' 00"
Sunlit
Object was in daylight at TLE epoch
TLE from 1 day ago
0 OPS 3367 A
1 00734U 64002B   24174.67807675  .00000156  00000-0  79910-4 0  9992
2 00734  98.9914  72.1194 0015325 127.1010 233.1574 14.29261798145259
Epoch: 2024-06-22T16:16Z
No data available
Other satellites on launch #2 in the year 1964 (1964-01-19 UTC)

OPS 3367 A Visibility forecast

Observer location: 39.9160978°, -105.1181434, 0m alt.

OPS 3367 A is not visible in the next 10 days
Span
Click to sort rows by Start time (UTC) header in descending order
Start Az.
Max El. time (UTC)
Max El. Az.
Max El.
End time (UTC)
End Az.